Location: Newark
(51.2656°N, 3.9089°E)
Time: 23:25:27
(UTC+00:00)

ISS - Pass Details

Date: 01 November 2019
Orbit: 412 x 421 km, 51.6° (Epoch: 16 November)

Event Time Altitude Azimuth Distance (km) Brightness Sun altitude
Exits shadow 04:45:08 53° 243° (WSW) 524 -3.7 -17.8°
Maximum altitude 04:45:49 80° 166° (SSE) 433 -3.8 -17.7°
Drops below altitude 10° 04:49:13 10° 80° (E) 1,508 0.3 -17.2°
Sets 04:51:19 0° 79° (E) 2,373 1.7 -16.8°
